Marshall, MI

4:36 AM EDT on June 24, 2017 (GMT -0400)
Brooks

Weather History for KRMY - March, 2013

Change the Weather History Date:

Wednesday, March 27, 2013

  Actual Average (KBTL) Record (KBTL)
Temperature  
Mean Temperature 36 °F -  
Max Temperature 45 °F 48 °F 77 °F (2007)
Min Temperature 26 °F 31 °F 16 °F (2011)
Degree Days  
Heating Degree Days 30    
Moisture  
Dew Point 24 °F    
Average Humidity 64    
Maximum Humidity 90    
Minimum Humidity 36    
Precipitation  
Precipitation 0.00 in - - ()
Sea Level Pressure  
Sea Level Pressure 30.19 in    
Wind  
Wind Speed 9 mph (WNW)    
Max Wind Speed 20 mph    
Max Gust Speed 28 mph    
Visibility 10 miles    
Events      
Averages and records for this station are not official NWS values.
T = Trace of Precipitation, MM = Missing Value Source: NWS Daily Summary

Daily Weather History Graph

Daily Weather History Graph

Search for Another Location

Airport or City:

Trip Planner

Search our weather history database for the weather conditions in past years. The results will help you decide how hot, cold, wet, or windy it might be!

Date:

Astronomy

Mar. 27, 2013 Rise Set
Actual Time 7:30 AM EDT 8:00 PM EDT
Civil Twilight 7:02 AM EDT 8:28 PM EDT
Nautical Twilight 6:29 AM EDT 9:01 PM EDT
Astronomical Twilight 5:55 AM EDT 9:35 PM EDT
Moon 8:44 PM EDT (3/27) 7:20 AM EDT (3/27)
Length of Visible Light 13h 25m
Length of Day
12h 29m
Full, 100% of the Moon is Illuminated
Mar 27
Full
Apr 3
Last Quarter
Apr 10
New
Apr 18
First Quarter
Apr 25
Full

Hourly Weather History & Observations

Time (EDT) Temp. Windchill Dew Point Humidity Pressure Visibility Wind Dir Wind Speed Gust Speed Precip Events Conditions
12:13 AM 33.1 °F 24.4 °F 29.7 °F 87% 30.14 in 10.0 mi WNW 11.5 mph 16.1 mph N/A   Overcast
12:34 AM 33.1 °F 26.1 °F 29.1 °F 85% 30.14 in 10.0 mi WNW 8.1 mph - N/A   Overcast
12:53 AM 33.1 °F 26.1 °F 28.9 °F 85% 30.15 in 10.0 mi WNW 8.1 mph - N/A   Overcast
1:14 AM 32.7 °F 26.4 °F 28.6 °F 85% 30.15 in 10.0 mi WNW 6.9 mph - N/A   Overcast
1:34 AM 32.5 °F 26.2 °F 28.6 °F 85% 30.15 in 10.0 mi WNW 6.9 mph - N/A   Overcast
1:53 AM 32.2 °F 27.7 °F 28.4 °F 86% 30.15 in 10.0 mi WNW 4.6 mph - N/A   Overcast
2:14 AM 32.2 °F 25.8 °F 28.2 °F 85% 30.15 in 10.0 mi WNW 6.9 mph - N/A   Overcast
2:34 AM 32.2 °F 27.7 °F 28.2 °F 85% 30.15 in 10.0 mi WNW 4.6 mph - N/A   Overcast
2:45 AM 32.0 °F 26.4 °F 28.4 °F 87% 30.15 in 10.0 mi WNW 5.8 mph - N/A   Overcast
3:13 AM 30.9 °F 25.2 °F 27.7 °F 88% 30.15 in 10.0 mi WNW 5.8 mph - N/A   Mostly Cloudy
3:34 AM 30.4 °F 25.6 °F 27.1 °F 88% 30.15 in 10.0 mi WNW 4.6 mph - N/A   Scattered Clouds
3:53 AM 29.8 °F 23.9 °F 26.8 °F 88% 30.15 in 10.0 mi WNW 5.8 mph - N/A   Clear
4:13 AM 28.9 °F 22.8 °F 26.1 °F 89% 30.15 in 10.0 mi West 5.8 mph - N/A   Clear
4:34 AM 28.8 °F 21.7 °F 25.9 °F 89% 30.15 in 10.0 mi West 6.9 mph - N/A   Clear
4:54 AM 28.6 °F 22.4 °F 25.7 °F 89% 30.16 in 10.0 mi WNW 5.8 mph - N/A   Clear
5:13 AM 28.6 °F 22.4 °F 25.7 °F 89% 30.16 in 10.0 mi WNW 5.8 mph - N/A   Clear
5:33 AM 28.4 °F 23.3 °F 25.3 °F 88% 30.16 in 10.0 mi WNW 4.6 mph - N/A   Clear
5:54 AM 28.2 °F 22.0 °F 25.2 °F 88% 30.16 in 10.0 mi WNW 5.8 mph - N/A   Clear
6:13 AM 27.9 °F 20.6 °F 25.0 °F 89% 30.17 in 10.0 mi West 6.9 mph - N/A   Clear
6:33 AM 27.9 °F 21.5 °F 25.2 °F 90% 30.17 in 10.0 mi WNW 5.8 mph - N/A   Clear
6:54 AM 27.9 °F 21.5 °F 25.2 °F 90% 30.17 in 10.0 mi West 5.8 mph - N/A   Clear
7:14 AM 27.0 °F 20.5 °F 24.3 °F 90% 30.17 in 10.0 mi West 5.8 mph - N/A   Clear
7:33 AM 26.8 °F 20.2 °F 24.3 °F 90% 30.17 in 10.0 mi West 5.8 mph - N/A   Clear
7:53 AM 27.7 °F 21.3 °F 25.2 °F 90% 30.18 in 10.0 mi West 5.8 mph - N/A   Clear
8:14 AM 28.8 °F 22.6 °F 26.1 °F 90% 30.18 in 10.0 mi West 5.8 mph - N/A   Clear
8:33 AM 30.6 °F 22.4 °F 27.3 °F 88% 30.19 in 10.0 mi WNW 9.2 mph - N/A   Clear
8:53 AM 32.4 °F 25.3 °F 27.5 °F 82% 30.19 in 10.0 mi WNW 8.1 mph - N/A   Clear
9:14 AM 33.8 °F 27.0 °F 27.3 °F 77% 30.19 in 10.0 mi WNW 8.1 mph - N/A   Clear
9:33 AM 34.7 °F 26.9 °F 27.5 °F 75% 30.19 in 10.0 mi WNW 10.4 mph 18.4 mph N/A   Clear
9:54 AM 35.8 °F 26.9 °F 28.0 °F 73% 30.20 in 10.0 mi WNW 13.8 mph - N/A   Clear
10:14 AM 36.5 °F 27.8 °F 27.3 °F 69% 30.20 in 10.0 mi West 13.8 mph 19.6 mph N/A   Clear
10:33 AM 37.4 °F 30.8 °F 26.2 °F 64% 30.20 in 10.0 mi WNW 9.2 mph - N/A   Clear
10:54 AM 38.5 °F 28.9 °F 22.5 °F 53% 30.20 in 10.0 mi WNW 18.4 mph 25.3 mph N/A   Clear
11:14 AM 39.4 °F 30.1 °F 21.0 °F 48% 30.20 in 10.0 mi WNW 18.4 mph 24.2 mph N/A   Clear
11:33 AM 40.3 °F 31.0 °F 19.6 °F 44% 30.20 in 10.0 mi WNW 19.6 mph 27.6 mph N/A   Clear
11:54 AM 41.4 °F 34.3 °F 20.5 °F 43% 30.20 in 10.0 mi NW 12.7 mph 24.2 mph N/A   Clear
12:13 PM 41.7 °F 34.1 °F 21.0 °F 44% 30.20 in 10.0 mi NW 15.0 mph 24.2 mph N/A   Clear
12:34 PM 41.5 °F 32.9 °F 21.2 °F 44% 30.20 in 10.0 mi WNW 18.4 mph 24.2 mph N/A   Scattered Clouds
12:54 PM 42.6 °F 34.9 °F 20.8 °F 42% 30.20 in 10.0 mi West 16.1 mph 23.0 mph N/A   Scattered Clouds
1:13 PM 43.2 °F 37.0 °F 21.7 °F 43% 30.19 in 10.0 mi West 11.5 mph 19.6 mph N/A   Scattered Clouds
1:34 PM 44.2 °F 36.7 °F 20.8 °F 39% 30.19 in 10.0 mi West 17.3 mph 24.2 mph N/A   Scattered Clouds
1:53 PM 45.7 °F 39.5 °F 20.5 °F 37% 30.19 in 10.0 mi West 13.8 mph - N/A   Scattered Clouds
2:13 PM 44.2 °F 37.6 °F 19.9 °F 38% 30.19 in 10.0 mi West 13.8 mph 24.2 mph N/A   Scattered Clouds
2:34 PM 45.7 °F 39.8 °F 20.3 °F 37% 30.19 in 10.0 mi West 12.7 mph 21.9 mph N/A   Mostly Cloudy
2:53 PM 43.5 °F 38.3 °F 19.9 °F 39% 30.18 in 10.0 mi WNW 9.2 mph 19.6 mph N/A   Mostly Cloudy
3:13 PM 45.0 °F 38.5 °F 20.1 °F 37% 30.18 in 10.0 mi West 13.8 mph 24.2 mph N/A   Overcast
3:34 PM 45.0 °F 37.9 °F 21.2 °F 39% 30.18 in 10.0 mi West 16.1 mph 21.9 mph N/A   Overcast
3:53 PM 45.9 °F 40.0 °F 20.1 °F 36% 30.18 in 10.0 mi WNW 12.7 mph - N/A   Mostly Cloudy
4:14 PM 43.7 °F 37.3 °F 21.2 °F 41% 30.17 in 10.0 mi WNW 12.7 mph 21.9 mph N/A   Overcast
4:34 PM 45.9 °F 38.3 °F 21.2 °F 38% 30.17 in 10.0 mi West 19.6 mph - N/A   Mostly Cloudy
4:53 PM 44.8 °F 37.7 °F 21.6 °F 40% 30.18 in 10.0 mi WNW 16.1 mph 25.3 mph N/A   Overcast
5:14 PM 44.6 °F 37.2 °F 21.6 °F 40% 30.18 in 10.0 mi West 17.3 mph 23.0 mph N/A   Mostly Cloudy
5:33 PM 41.9 °F 35.4 °F 21.4 °F 44% 30.18 in 10.0 mi WNW 11.5 mph 19.6 mph N/A   Scattered Clouds
5:53 PM 43.0 °F 35.7 °F 20.8 °F 41% 30.18 in 10.0 mi WNW 15.0 mph 24.2 mph N/A   Scattered Clouds
6:14 PM 43.3 °F 36.1 °F 21.4 °F 42% 30.19 in 10.0 mi WNW 15.0 mph 20.7 mph N/A   Mostly Cloudy
6:33 PM 42.1 °F 34.5 °F 21.4 °F 44% 30.19 in 10.0 mi West 15.0 mph 21.9 mph N/A   Mostly Cloudy
6:53 PM 41.2 °F 35.0 °F 22.3 °F 47% 30.19 in 10.0 mi WNW 10.4 mph 19.6 mph N/A   Scattered Clouds
7:14 PM 39.7 °F 31.9 °F 21.9 °F 49% 30.20 in 10.0 mi West 13.8 mph 21.9 mph N/A   Scattered Clouds
7:33 PM 38.8 °F 31.6 °F 21.7 °F 50% 30.20 in 10.0 mi WNW 11.5 mph - N/A   Clear
7:54 PM 37.6 °F 29.6 °F 20.7 °F 51% 30.21 in 10.0 mi WNW 12.7 mph 21.9 mph N/A   Clear
8:13 PM 36.3 °F 28.9 °F 21.0 °F 54% 30.21 in 10.0 mi West 10.4 mph - N/A   Clear
8:33 PM 36.0 °F 28.5 °F 20.5 °F 53% 30.22 in 10.0 mi WNW 10.4 mph - N/A   Clear
8:54 PM 34.9 °F 27.1 °F 20.7 °F 56% 30.22 in 10.0 mi West 10.4 mph - N/A   Clear
9:13 PM 34.3 °F 27.0 °F 20.3 °F 57% 30.22 in 10.0 mi West 9.2 mph - N/A   Clear
9:33 PM 33.8 °F 26.4 °F 20.1 °F 57% 30.22 in 10.0 mi West 9.2 mph - N/A   Clear
9:54 PM 32.7 °F 25.7 °F 20.5 °F 61% 30.23 in 10.0 mi West 8.1 mph - N/A   Clear
10:13 PM 32.4 °F 26.0 °F 20.5 °F 62% 30.23 in 10.0 mi WNW 6.9 mph - N/A   Clear
10:33 PM 32.4 °F 25.3 °F 20.7 °F 62% 30.23 in 10.0 mi West 8.1 mph - N/A   Clear
10:54 PM 31.8 °F 26.2 °F 20.5 °F 63% 30.23 in 10.0 mi WNW 5.8 mph - N/A   Clear
11:13 PM 30.7 °F 24.1 °F 20.5 °F 66% 30.24 in 10.0 mi West 6.9 mph - N/A   Clear
11:34 PM 30.0 °F 23.2 °F 20.1 °F 67% 30.24 in 10.0 mi West 6.9 mph - N/A   Clear
11:54 PM 29.3 °F 24.3 °F 20.1 °F 69% 30.24 in 10.0 mi West 4.6 mph - N/A   Clear